Regional Weather Roundup
Issued by NWS

Home | Current Version | Previous Version | Text Only | Print | Product List | Glossary Off
Versions: 1 2 3 4 5 6 7 8 9 10 11 12 13 14 15 16 17 18 19 20 21 22 23 24 25 26 27 28 29 30 31 32 33 34 35 36 37 38 39 40 41 42 43 44 45 46 47 48 49 50

000
ASUS43 KMPX 220610
RWRMN
WEATHER ROUNDUP FOR MINNESOTA
NATIONAL WEATHER SERVICE TWIN CITIES/CHANHASSEN MN
1200 AM CST THU FEB 22 2018


NOTE: "FAIR" INDICATES FEW OR NO CLOUDS BELOW 12,000 FEET WITH NO
SIGNIFICANT WEATHER AND/OR OBSTRUCTIONS TO VISIBILITY. N/A MEANS
CURRENT SKY AND/OR WEATHER CONDITIONS ARE NOT AVAILABLE.

MNZ060>063-068>070-220700-
   Twin Cities Metro

CITY           SKY/WX    TMP DP  RH WIND       PRES   REMARKS
TWIN CITIES    MOCLDY    10   5  80 SE5       30.62F WCI   2
6HR MIN TEMP:  10; 6HR MAX TEMP:  20;

ST PAUL        FAIR       9   4  80 E3        30.65F
CRYSTAL        FAIR       5   0  79 CALM      30.61F
BLAINE         FAIR       7   1  78 CALM      30.61F
LAKEVILLE        N/A      3   1  92 CALM      30.61F
EDEN PRAIRIE   FAIR       9   2  73 SE6       30.60F WCI  -1
6HR MIN TEMP:   8; 6HR MAX TEMP:  15;

SOUTH ST PAUL  FAIR       8   4  84 CALM      30.63F
LAKE ELMO      FAIR       3   1  92 CALM      30.63F
$$
MNZ001>005-007-008-013>017-022>024-027-028-220700-
   Northwest Minnesota

CITY           SKY/WX    TMP DP  RH WIND       PRES   REMARKS
BEMIDJI        FAIR       0  -6  74 CALM      30.53S
HALLOCK        FAIR      -6  -9  84 S12       30.51S WCI -24
ROSEAU         FAIR       0  -6  78 S5        30.51S WCI -10
WARROAD        FAIR      -2  -6  84 S5        30.51S WCI -12
THIEF RVR FALL FAIR      -1  -5  82 S10       30.53S WCI -17
CROOKSTON      FAIR       0  -6  78 S10       30.55S WCI -17
FOSSTON        FAIR      -6 -11  77 S9        30.53S WCI -22
DETROIT LAKES  FAIR       3   0  85 SE6       30.53S WCI  -8
MOORHEAD       FAIR       0  -8  71 SE6       30.55S WCI -12
PARK RAPIDS    FAIR      -8 -13  78 SE3       30.53F
MAHNOMEN       FAIR       4  -3  71 SE6       30.52F WCI  -6
$$
MNZ006-009>011-018-025>026-220700-
   North Central Minnesota

CITY           SKY/WX    TMP DP  RH WIND       PRES   REMARKS
BAUDETTE       FAIR      -3  -8  79 S3        30.51R
FLAG ISLAND    FAIR      -9 -15  77 S7        30.50R WCI -24
INTL FALLS     FAIR      -1  -9  68 SW5       30.54R WCI -11
6HR MIN TEMP:  -2; 6HR MAX TEMP:  16;

WASKISH        FAIR     -13 -18  77 CALM      30.53S
BIG FORK       FAIR      -2  -8  78 SW3       30.54R
LONGVILLE      FAIR      -9 -15  77 CALM      30.56S
GRAND RAPIDS   FAIR      -1  -7  75 S5        30.59R WCI -11
CRANE LAKE     FAIR     -11 -17  77 CALM      30.58R
ORR            FAIR       3  -4  72 CALM      30.52R
COOK             N/A     -6  -9  84 CALM      30.55R
WALKER         FAIR       1  -6  71 CALM      30.54F
$$
MNZ012-019>021-037-220700-
   Northeast Minnesota

CITY           SKY/WX    TMP DP  RH WIND       PRES   REMARKS
DULUTH         FAIR       6  -4  63 W9        30.57S WCI  -8
6HR MIN TEMP:   6; 6HR MAX TEMP:  19;

ELY            FAIR       5  -2  72 CALM      30.54S
HIBBING        FAIR     -12 -15  86 CALM      30.56R
EVELETH        FAIR     N/A N/A N/A CALM      30.57R
DULUTH HARBOR  FAIR       9   0  66 SW8       30.66S WCI  -4
TWO HARBORS    FAIR       3  -2  78 W5        30.58F WCI  -6
GRAND MARAIS     N/A     17   2  51 W3        30.62R
G MARAIS ARPRT FAIR       9  -2  61 SW3       30.52R
$$
MNZ029>031-032-039>041-046>048-054>057-064-220700-
   West Central Minnesota

CITY           SKY/WX    TMP DP  RH WIND       PRES   REMARKS
FERGUS FALLS   FAIR       3  -2  78 SE8       30.57S WCI -10
WHEATON        FAIR      -2  -8  78 SE8       30.57F WCI -17
MORRIS         FAIR       0  -6  78 E6        30.55S WCI -12
ALEXANDRIA     FAIR       2  -3  80 SE3       30.55S
ELBOW LAKE     FAIR       1  -4  78 SE7       30.56F WCI -12
WADENA         FAIR      -2  -6  84 CALM      30.54F
GLENWOOD       FAIR       3   0  85 SE3       30.55F
APPLETON       FAIR       0  -6  78 E3        30.56F
BENSON         FAIR       0  -6  78 CALM      30.57S
ORTONVILLE     FAIR       1  -4  78 SE6       30.54S WCI -10
MADISON        FAIR       3  -2  78 SE3       30.56S
WILLMAR        FAIR       1  -2  85 E3        30.58F
$$
MNZ033>034-036-042>043-049>051-058-059-220700-
   Central Minnesota

CITY           SKY/WX    TMP DP  RH WIND       PRES   REMARKS
ST CLOUD       FAIR      -3  -7  82 CALM      30.60F
6HR MIN TEMP:  -4; 6HR MAX TEMP:  15;

SAUK CENTRE    FAIR      -3  -6  86 CALM      30.57F
PAYNESVILLE    FAIR      -1  -5  84 CALM      30.58S
AITKIN         FAIR      -4  -9  77 CALM      30.58S
PINE RIVER     FAIR      -9 -15  77 CALM      30.59S
BRAINERD       FAIR      -3  -9  75 CALM      30.58F
STAPLES        FAIR      -4  -9  77 CALM      30.56F
LONG PRAIRIE   FAIR      -4  -8  84 CALM      30.57R
LITTLE FALLS   FAIR      -2 -11  65 CALM      30.60S
LITCHFIELD     FAIR       3   0  85 CALM      30.58F
BUFFALO        FAIR       2  -3  79 CALM      30.61F
MAPLE LAKE     FAIR       3   0  88 CALM      30.60S
HUTCHINSON     FAIR       5   0  81 CALM      30.60S
$$
MNZ037-044-045-052-053-220700-
   East Central Minnesota

CITY           SKY/WX    TMP DP  RH WIND       PRES   REMARKS
PRINCETON      FAIR       0  -2  92 CALM      30.60F
CAMBRIDGE        N/A      1  -6  71 CALM      30.62F
RUSH CITY      MOCLDY     1  -4  80 CALM      30.63S
MOOSE LAKE     FAIR      -4  -8  84 CALM      30.60S
HINCKLEY       FAIR      -6  -9  84 CALM      30.62F
CLOQUET        FAIR       7  -2  66 SW3       30.59S
MCGREGOR       FAIR       5   0  78 CALM      30.59F
$$
MNZ071>073-080-081-089-090-097-098-220700-
   Southwest Minnesota

CITY           SKY/WX    TMP DP  RH WIND       PRES   REMARKS
MONTEVIDEO     FAIR       3   0  85 S3        30.57S
GRANITE FALLS  FAIR       6   1  78 SE5       30.59R WCI  -3
CANBY          FAIR       2  -4  76 CALM      30.55F
MARSHALL       CLOUDY     5   0  79 S6        30.55S WCI  -6
REDWOOD FALLS  FAIR       5   0  79 SE6       30.59R WCI  -6
OLIVIA         FAIR       9   3  78 SE5       30.58S WCI   0
PIPESTONE      FAIR       7   1  78 SE5       30.49F WCI  -2
WORTHINGTON    MOCLDY    12   7  80 SE6       30.52F WCI   3
JACKSON        MOCLDY    10   5  79 E6        30.54F WCI   1
TRACY          FAIR      10   5  79 S6        30.53F WCI   1
SLAYTON        MOCLDY     6   3  86 SE5       30.52F WCI  -2
$$
MNZ065>067-074>077-082>085-091>093-220700-
   South Central Minnesota

CITY           SKY/WX    TMP DP  RH WIND       PRES   REMARKS
MANKATO        FAIR       8   3  80 E3        30.60F
NEW ULM        FAIR      10   1  67 S5        30.59S WCI   2
ST JAMES       FAIR      12   7  79 CALM      30.59F
FAIRMONT       FAIR      11   6  81 E5        30.58F WCI   3
GLENCOE        FAIR       7   2  78 SE3       30.60S
FARIBAULT      FAIR       7   3  85 CALM      30.60F
OWATONNA       FAIR       9   7  92 CALM      30.59F
WASECA         FAIR      12   9  85 NE3       30.60F
ALBERT LEA     FAIR      16  10  79 CALM      30.58S
$$
MNZ078>079-086>088-094>096-220700-
   Southeast Minnesota

CITY           SKY/WX    TMP DP  RH WIND       PRES   REMARKS
ROCHESTER      MOCLDY    15  10  80 NE5       30.58F WCI   8
6HR MIN TEMP:  15; 6HR MAX TEMP:  17;

RED WING       FAIR       7   1  78 CALM      30.63F
STANTON        FAIR       6   2  84 CALM      30.61F
DODGE CENTER   FAIR      12   9  85 NE3       30.58S
WINONA         FAIR      18  12  79 CALM      30.64F
AUSTIN         FAIR      18  14  86 CALM      30.58S
PRESTON        MOCLDY    16  12  84 CALM      30.59F
$$
ABBREVIATIONS USED IN REMARKS
   TC - TEMPERATURES IN CELSIUS
  WCI - WIND CHILL INDEX
   HX - HEAT INDEX
  VSB - VISIBILITY
$$




USA.gov is the U.S. government's official web portal to all federal, state and local government web resources and services.